[[{"header":{"parameterUnit":"m.s-1","parameterCategory":1,"la1":30.2991,"la2":30.254,"lo1":-89.0895,"lo2":-89.0444,"dy":0.0017,"dx":0.0017,"nx":28,"ny":28,"refTime":"2025-06-07T09:00:00:Z","depth":0,"parameterNumber":2,"parameterNumberName":"U-component_of_WINDS"},"data":[0,0,0,0,0,0,0,0,0,0,0,0,0,0,0,0,0,0,0,0,0,0,0,0,0,0,0,0,0,0,0,0,0,0,0,0,0,0,0,0,0,0,0,0,0,0,0,0,0,0,0,0,0,0,0,0,0,0,2.3997,2.3999,0,2.4245,2.4247,2.425,2.4279,2.4277,2.4274,2.4272,2.4534,2.4543,2.4553,0,0,0,0,0,0,0,0,0,0,0,0,0,2.3559,2.3567,2.3996,2.3999,2.4002,2.4244,2.4248,2.4251,2.428,2.4276,2.4273,2.4271,2.4531,2.4542,2.4553,0,0,0,0,0,0,0,0,0,0,0,0,0,2.3773,2.357,2.3996,2.4046,2.4053,2.4243,2.4248,2.4252,2.428,2.4276,2.4273,2.4269,2.4528,2.4541,2.4555,2.4716,0,0,2.4598,2.4604,0,0,0,0,0,0,0,0,2.376,2.3789,2.4035,2.4043,2.4051,2.4227,2.419,2.4408,2.4281,2.4194,2.4272,2.4267,2.4436,2.4457,2.4512,2.4728,2.4739,2.4599,2.4607,2.4613,2.4617,0,0,0,0,0,0,0,2.3746,2.3778,2.4095,2.4039,2.4048,2.406,2.4086,2.4231,2.4333,2.4201,2.4204,2.4232,2.4439,2.4498,2.4518,2.4743,2.4599,2.4611,2.462,2.4625,2.5112,2.5117,0,0,0,0,0,0,2.372,2.3766,2.4087,2.4102,2.3893,2.4071,2.41,2.4174,2.4331,2.4352,2.4235,2.4233,2.4476,2.4502,2.4528,2.4732,2.4613,2.4626,2.4634,2.5108,2.5113,2.5118,0,0,0,0,0,0,2.3711,2.3748,2.4077,2.3935,2.3977,2.4082,2.4165,2.4181,2.424,2.4357,2.4376,2.4276,2.4474,2.4508,2.467,2.4741,2.4633,2.4645,2.5102,2.5109,2.5116,2.5137,0,0,0,0,0,0,2.3698,2.3745,2.3804,2.3936,2.3985,2.4211,2.417,2.4189,2.4263,2.4262,2.4401,2.442,2.4474,2.4649,2.4684,2.4758,2.4656,2.5097,2.5106,2.5114,2.5131,2.5144,2.5155,0,0,0,0,0,2.3682,2.38,2.3806,2.3845,2.406,2.4215,2.4244,2.4301,2.4268,2.4332,2.4408,2.4416,2.4727,2.4665,2.4705,2.4784,2.5092,2.5103,2.5113,2.5125,2.5141,2.5155,0,0,0,0,0,0,2.3675,2.3818,2.3827,2.399,2.409,2.4219,2.43,2.4315,2.4428,2.4423,2.4492,2.4523,2.4684,2.475,2.4679,2.4952,2.4907,2.4926,2.4903,2.4919,2.4931,2.4914,2.4668,0,0,0,0,0,2.3692,2.3802,2.3923,2.4056,2.4105,2.4194,2.4264,2.4299,2.4407,2.445,2.4538,2.4645,2.4768,2.4847,2.4965,2.514,2.5174,2.5215,2.5227,2.5237,2.5253,2.5357,2.5379,2.5152,2.5152,2.5152,0,0,2.3729,2.3821,2.3887,2.4057,2.4138,2.4256,2.4229,2.4353,2.4443,2.447,2.4629,2.4697,2.4822,2.4992,2.5072,2.5053,2.5323,2.525,2.5256,2.5268,2.537,2.5392,2.5411,2.5159,2.5158,2.5157,0,0,2.3857,2.3935,2.4058,2.4141,2.4265,2.4324,2.4353,2.4482,2.4528,2.4688,2.4713,2.4822,2.503,2.512,2.5192,2.5361,2.5375,2.5398,2.5463,2.5564,2.5582,2.5598,2.5664,2.5686,2.5413,2.5413,2.5413,0,2.3889,2.4063,2.4119,2.4244,2.4321,2.435,2.4478,2.4556,2.4713,2.4768,2.4743,2.5009,2.5094,2.529,2.5331,2.5387,2.5428,2.5383,2.5574,2.5591,2.5607,2.5671,2.5694,2.5415,2.5415,2.5415,2.5415,0,2.4099,2.422,2.4305,2.4455,2.4542,2.4667,2.4747,2.4828,2.4858,2.4921,2.5088,2.5192,2.5335,2.5384,2.5413,2.5586,2.5571,2.5559,2.5516,2.563,2.5691,2.5716,2.5419,2.5418,2.5417,2.5417,0,0,2.4228,2.4411,2.4441,2.4513,2.4654,2.4751,2.4881,2.5019,2.5091,2.52,2.5314,2.5492,2.5484,2.5567,2.5608,2.5695,2.583,2.5675,2.5679,2.5704,2.6033,2.6044,2.607,2.5839,2.5844,2.5848,2.6025,0,2.4376,2.4605,2.4662,2.4859,2.4976,2.5007,2.5122,2.5223,2.5287,2.5399,2.5471,2.5598,2.5574,2.5626,2.5714,2.5794,2.5898,2.5782,2.5952,2.5957,2.5923,2.6101,2.6112,2.6274,2.6048,2.6052,2.6055,0,2.4578,2.4692,2.4901,2.5032,2.5084,2.5185,2.532,2.5424,2.5543,2.5584,2.5678,2.5712,2.5854,2.5802,2.6002,2.5923,2.5996,2.6047,2.6055,2.6076,2.6015,2.6132,2.6326,2.6352,2.6092,2.6089,2.6087,0,2.4658,2.4863,2.5016,2.5076,2.5232,2.5303,2.5372,2.5487,2.5569,2.5688,2.5743,2.5877,2.5952,2.6058,2.6129,2.6083,2.6326,2.6278,2.6369,2.6368,2.6421,2.6417,2.6634,2.6461,2.6461,2.646,2.646,0,2.482,2.4948,2.5055,2.5149,2.5296,2.5363,2.5507,2.5578,2.568,2.5793,2.5828,2.5934,2.602,2.6139,2.6196,2.6357,2.639,2.6431,2.6445,2.643,2.6425,2.6481,2.6474,2.6467,2.6465,2.6464,2.6463,0,2.4934,2.501,2.518,2.5315,2.5352,2.5455,2.5573,2.5669,2.5734,2.5877,2.5915,2.6019,2.6162,2.6243,2.6422,2.6461,2.6643,2.6649,2.6602,2.6609,2.6697,2.669,2.6961,2.7003,2.6797,2.6799,2.6801,0,2.5034,2.5134,2.528,2.5357,2.5427,2.555,2.5634,2.5705,2.5792,2.5938,2.6019,2.6163,2.6282,2.651,2.6605,2.6744,2.6758,2.6843,2.6779,2.6763,2.6766,2.676,2.6774,2.6855,2.6857,2.6858,2.686,0,2.5205,2.5239,2.5357,2.5491,2.559,2.5699,2.5808,2.587,2.596,2.6057,2.6203,2.6295,2.648,2.6626,2.6774,2.6849,2.6873,2.6879,2.6909,2.6896,2.6867,2.6889,2.6637,2.6873,2.6872,2.6871,2.687,2.6869,2.5319,2.5411,2.553,2.5663,2.5752,2.5854,2.5952,2.6031,2.6153,2.6308,2.6343,2.6498,2.6621,2.6822,2.6902,2.7028,2.7013,2.7054,2.7066,2.7076,2.7082,2.6843,2.7055,2.7055,2.7054,2.7054,2.7054,0,2.5497,2.5575,2.5696,2.5848,2.5954,2.5963,2.6085,2.6175,2.631,2.6421,2.6539,2.671,2.6853,2.6959,2.7107,2.7187,2.7202,2.7224,2.7221,2.724,2.7084,2.7046,2.721,2.721,2.721,2.721,2.721,2.721,2.5601,2.576,2.5809,2.6015,2.6094,2.6245,2.6315,2.6411,2.6501,2.669,2.6808,2.6876,2.6988,2.7145,2.7278,2.7306,2.7361,2.7383,2.7413,2.7266,2.725,2.7234,2.7199,2.7393,2.7393,2.756,2.7561,2.7562]},{"header":{"parameterUnit":"m.s-1","parameterCategory":1,"la1":30.2991,"la2":30.254,"lo1":-89.0895,"lo2":-89.0444,"dy":0.0017,"dx":0.0017,"nx":28,"ny":28,"refTime":"2025-06-07T09:00:00:Z","depth":0,"parameterNumber":3,"parameterNumberName":"V-component_of_WINDS"},"data":[0,0,0,0,0,0,0,0,0,0,0,0,0,0,0,0,0,0,0,0,0,0,0,0,0,0,0,0,0,0,0,0,0,0,0,0,0,0,0,0,0,0,0,0,0,0,0,0,0,0,0,0,0,0,0,0,0,0,5.6757,5.6761,0,5.7105,5.7109,5.7113,5.7168,5.7165,5.7162,5.7159,5.7509,5.7521,5.7533,0,0,0,0,0,0,0,0,0,0,0,0,0,5.6133,5.6145,5.6757,5.6761,5.6765,5.7104,5.7109,5.7114,5.7168,5.7165,5.7161,5.7157,5.7505,5.7519,5.7534,0,0,0,0,0,0,0,0,0,0,0,0,0,5.6435,5.6148,5.6756,5.6834,5.6844,5.7104,5.7109,5.7115,5.7169,5.7165,5.716,5.7156,5.75,5.7518,5.7536,5.774,0,0,5.7591,5.7599,0,0,0,0,0,0,0,0,5.6418,5.6458,5.6818,5.6829,5.6841,5.7089,5.7018,5.7324,5.717,5.7045,5.7159,5.7153,5.7372,5.7401,5.7476,5.7756,5.7771,5.7593,5.7604,5.7612,5.7617,0,0,0,0,0,0,0,5.6397,5.6443,5.6894,5.6823,5.6837,5.6849,5.6887,5.7076,5.723,5.7056,5.7061,5.7102,5.7377,5.7458,5.7484,5.7777,5.7593,5.7609,5.762,5.7627,5.8245,5.825,0,0,0,0,0,0,5.6363,5.6425,5.6883,5.6905,5.6614,5.6864,5.6906,5.7013,5.7228,5.7257,5.7105,5.7103,5.7429,5.7463,5.7497,5.7754,5.7612,5.7629,5.7639,5.824,5.8246,5.8252,0,0,0,0,0,0,5.6349,5.6403,5.6869,5.6667,5.6727,5.688,5.7,5.7023,5.7104,5.7266,5.7292,5.716,5.7427,5.7471,5.768,5.7766,5.7637,5.7654,5.8233,5.8242,5.8249,5.8266,0,0,0,0,0,0,5.6331,5.6398,5.6478,5.6668,5.6738,5.7049,5.7005,5.7033,5.7136,5.7136,5.7324,5.735,5.7427,5.7653,5.7699,5.7789,5.7668,5.8226,5.8237,5.8247,5.8259,5.8274,5.8287,0,0,0,0,0,5.6309,5.6467,5.6482,5.6537,5.6842,5.7053,5.7093,5.718,5.7142,5.7224,5.7328,5.7345,5.7749,5.7674,5.7726,5.7823,5.8221,5.8234,5.8246,5.8252,5.8271,5.8286,0,0,0,0,0,0,5.628,5.6493,5.6512,5.6737,5.6877,5.7062,5.7168,5.7196,5.7347,5.7341,5.744,5.7481,5.7686,5.7775,5.7688,5.8033,5.7982,5.8005,5.7969,5.7988,5.8002,5.7977,5.7683,0,0,0,0,0,5.6301,5.6457,5.6633,5.6815,5.6884,5.7014,5.7109,5.7164,5.7312,5.7371,5.749,5.7631,5.7791,5.7893,5.8048,5.827,5.8313,5.8363,5.8377,5.8387,5.8407,5.8534,5.8559,5.8293,5.8293,5.8292,0,0,5.6344,5.6479,5.6571,5.6813,5.6928,5.7087,5.7063,5.7231,5.735,5.7396,5.7603,5.7694,5.7858,5.8076,5.8177,5.8156,5.849,5.8403,5.8411,5.8425,5.8549,5.8574,5.8597,5.8301,5.8299,5.8298,0,0,5.6505,5.6622,5.6788,5.6904,5.708,5.7165,5.7204,5.7386,5.7451,5.766,5.7698,5.7839,5.811,5.8227,5.8321,5.8527,5.8549,5.8574,5.8649,5.8772,5.8793,5.8812,5.8888,5.8914,5.8593,5.8593,5.8593,0,5.6536,5.6779,5.6868,5.7038,5.7143,5.7194,5.7362,5.7469,5.7685,5.7756,5.7729,5.8073,5.8187,5.8434,5.8484,5.8558,5.8607,5.8555,5.8783,5.8803,5.8822,5.8896,5.8924,5.8595,5.8595,5.8595,5.8594,0,5.681,5.6977,5.709,5.7301,5.7418,5.7585,5.77,5.7808,5.7852,5.7939,5.8152,5.829,5.8476,5.8538,5.8581,5.8791,5.8773,5.8763,5.8714,5.8848,5.892,5.8949,5.8598,5.8598,5.8597,5.8596,0,0,5.6964,5.7224,5.7264,5.7362,5.756,5.769,5.7859,5.8043,5.8135,5.8281,5.8427,5.8655,5.8649,5.8756,5.8812,5.8919,5.9077,5.8897,5.8902,5.8928,5.9321,5.933,5.9361,5.9091,5.9097,5.9101,5.9308,0,5.7151,5.7458,5.7544,5.7803,5.796,5.8011,5.8158,5.8294,5.8381,5.8525,5.8618,5.8782,5.8758,5.8824,5.8931,5.9035,5.9158,5.9021,5.9228,5.9234,5.9189,5.9398,5.9408,5.9597,5.9336,5.9341,5.9344,0,5.741,5.7566,5.7842,5.8022,5.8091,5.8222,5.8399,5.8536,5.8692,5.8747,5.8868,5.8915,5.9092,5.9031,5.9278,5.9183,5.9272,5.9335,5.9345,5.937,5.93,5.9433,5.9659,5.9689,5.9389,5.9385,5.9382,0,5.75,5.7777,5.798,5.8061,5.8275,5.8367,5.8459,5.861,5.8716,5.8869,5.894,5.9109,5.9204,5.9334,5.9426,5.9372,5.9665,5.9611,5.9717,5.9715,5.9779,5.9775,6.0027,5.983,5.9829,5.9829,5.9828,0,5.7702,5.7869,5.8024,5.8148,5.8337,5.8433,5.8617,5.8711,5.8846,5.8989,5.9039,5.9172,5.9284,5.9431,5.9503,5.9698,5.9738,5.9788,5.9806,5.9787,5.9781,5.9849,5.984,5.9837,5.9835,5.9833,5.9832,0,5.7835,5.7945,5.8169,5.8354,5.8404,5.8536,5.8694,5.8816,5.8903,5.9084,5.9131,5.9269,5.9445,5.9549,5.9769,5.9818,6.0035,6.0045,5.9984,5.9993,6.0095,6.0085,6.0403,6.0451,6.0218,6.022,6.0222,0,5.7959,5.809,5.829,5.8391,5.8486,5.8647,5.8757,5.8855,5.8967,5.9155,5.9254,5.9434,5.9584,5.9862,5.9981,6.0151,6.0168,6.0267,6.0193,6.017,6.0174,6.0167,6.0182,6.0281,6.0283,6.0284,6.0286,0,5.8168,5.8216,5.8374,5.8551,5.8681,5.8824,5.8966,5.9045,5.9168,5.929,5.9473,5.9589,5.9817,5.9995,6.0175,6.0269,6.0299,6.0307,6.0342,6.0325,6.0286,6.0313,6.0023,6.0301,6.0299,6.0298,6.0297,6.0297,5.8304,5.8423,5.8584,5.8758,5.8876,5.9008,5.9134,5.9238,5.9393,5.9589,5.9636,5.9829,5.9981,6.0227,6.0324,6.0475,6.0459,6.0507,6.052,6.0532,6.0537,6.0259,6.0508,6.0507,6.0507,6.0507,6.0507,0,5.8519,5.8625,5.8784,5.8984,5.912,5.9138,5.9296,5.9409,5.9579,5.972,5.9867,6.0077,6.0251,6.0383,6.0561,6.0656,6.0675,6.07,6.0696,6.0718,6.054,6.0495,6.0682,6.0682,6.0682,6.0682,6.0682,6.0682,5.8647,5.8852,5.892,5.9184,5.9288,5.948,5.9569,5.9692,5.9805,6.0039,6.0185,6.0271,6.0409,6.0597,6.0757,6.0791,6.0855,6.0879,6.0916,6.0748,6.0729,6.0712,6.067,6.0891,6.0892,6.1082,6.1084,6.1085]}]]